Date String (YYYY-MM-DD hh:mm:ss) UTC,Instrument flags,absolute air pressure of the measurement (hPa),sample flow rate (lpm),inlet stack bypass flow (lpm),air temperature of the measurement (°C),ambient temperature measured by the external sensor (°C),aerosol sample conditioner tube jacket temperature (°C),OPC LED temperature (°C),internal box temperature (°C),relative humidity of the measurement (%),span deviation,mass concentration of particles derived from Lorenz-Mie calculation of OPC scattering (μg/m³),mass concentration of particles derived from Lorenz-Mie calculation of OPC scattering (μg/m³),mass concentration of particles derived from Lorenz-Mie calculation of OPC scattering (μg/m³)
DateTimeUTC,F1_M11,P_M11,Q1_M11,Q2_M11,T1_M11,T2_M11,T3_M11,T4_M11,T5_M11,U1_M11,ZSPAN_M11,X0_M11,X2_M11,X1_M11
2024-04-02 14:00:00,SystemResetWarning,0832.3,5.00,000.00,018.4,017.7,000.0,027.0,020.1,19.0,0000.0,0001.88,0001.18,0000.96
2024-04-02 14:01:00,SystemResetWarning,0832.3,5.00,000.00,018.4,017.7,000.0,027.0,020.1,20.2,0000.0,0001.96,0001.18,0000.95
2024-04-02 14:02:00,SystemResetWarning,0832.3,5.01,000.00,018.4,017.7,000.0,027.0,020.1,20.5,0000.0,0001.99,0001.19,0000.95
2024-04-02 14:03:00,SystemResetWarning,0832.3,5.00,000.00,018.4,017.7,000.0,027.0,020.0,20.3,0000.0,0002.01,0001.20,0000.96
2024-04-02 14:04:00,SystemResetWarning,0832.3,5.00,000.00,018.3,017.7,000.0,026.9,020.0,20.5,0000.0,0001.89,0001.17,0000.95
2024-04-02 14:05:00,SystemResetWarning,0832.3,5.00,000.00,018.3,017.7,000.0,026.9,020.0,20.2,0000.0,0002.06,0001.20,0000.96
2024-04-02 14:06:00,SystemResetWarning,0832.3,4.99,000.00,018.3,017.7,000.0,026.9,020.0,18.6,0000.0,0002.26,0001.22,0000.96
2024-04-02 14:07:00,SystemResetWarning,0832.3,4.99,000.00,018.3,017.7,000.0,026.9,020.0,17.1,0000.0,0002.25,0001.20,0000.95
2024-04-02 14:08:00,SystemResetWarning,0832.3,5.00,000.00,018.3,017.7,000.0,026.9,020.0,17.3,0000.0,0002.17,0001.18,0000.95
2024-04-02 14:09:00,SystemResetWarning,0832.3,5.01,000.00,018.3,017.7,000.0,026.9,020.0,18.8,0000.0,0002.22,0001.20,0000.96
2024-04-02 14:10:00,SystemResetWarning,0832.4,5.01,000.00,018.3,017.7,000.0,026.9,020.0,19.1,0000.0,0002.31,0001.25,0000.96
2024-04-02 14:11:00,SystemResetWarning,0832.4,5.00,000.00,018.3,017.7,000.0,026.9,020.0,17.6,0000.0,0002.20,0001.22,0000.96
2024-04-02 14:12:00,SystemResetWarning,0832.4,5.00,000.00,018.3,017.7,000.0,026.9,020.0,17.5,0000.0,0002.10,0001.21,0000.96
2024-04-02 14:13:00,SystemResetWarning,0832.4,5.00,000.00,018.3,017.7,000.0,026.9,020.0,17.3,0000.0,0002.17,0001.24,0000.97
2024-04-02 14:14:00,SystemResetWarning,0832.4,5.00,000.00,018.3,017.7,000.0,026.9,020.0,16.9,0000.0,0002.17,0001.24,0000.96
2024-04-02 14:15:00,SystemResetWarning,0832.4,4.99,000.00,018.3,017.7,000.0,026.8,020.0,16.4,0000.0,0002.25,0001.27,0000.96
2024-04-02 14:16:00,SystemResetWarning,0832.4,5.00,000.00,018.3,017.7,000.0,026.8,020.0,18.5,0000.0,0001.97,0001.21,0000.94
2024-04-02 14:17:00,SystemResetWarning,0832.5,4.99,000.00,018.3,017.7,000.0,026.8,020.0,19.1,0000.0,0001.73,0001.19,0000.93
2024-04-02 14:18:00,SystemResetWarning,0832.5,5.00,000.00,018.3,017.7,000.0,026.8,020.0,17.8,0000.0,0001.69,0001.19,0000.94
2024-04-02 14:19:00,SystemResetWarning,0832.6,5.00,000.00,018.3,017.7,000.0,026.8,020.0,17.5,0000.0,0001.72,0001.20,0000.95
2024-04-02 14:20:00,SystemResetWarning,0832.5,5.00,000.00,018.3,017.7,000.0,026.8,020.0,18.4,0000.0,0001.72,0001.21,0000.95
2024-04-02 14:21:00,SystemResetWarning,0832.5,5.01,000.00,018.3,017.7,000.0,026.8,020.0,18.7,0000.0,0001.65,0001.18,0000.94
2024-04-02 14:22:00,SystemResetWarning,0832.5,5.00,000.00,018.3,017.7,000.0,026.8,020.0,18.8,0000.0,0001.68,0001.19,0000.94
2024-04-02 14:23:00,SystemResetWarning,0832.5,5.00,000.00,018.3,017.7,000.0,026.8,020.0,20.0,0000.0,0001.76,0001.23,0000.95
2024-04-02 14:24:00,SystemResetWarning,0832.5,5.00,000.00,018.3,017.7,000.0,026.8,020.0,20.2,0000.0,0001.69,0001.21,0000.94
2024-04-02 14:25:00,SystemResetWarning,0832.5,5.00,000.00,018.3,017.7,000.0,026.8,020.0,20.0,0000.0,0001.65,0001.20,0000.94
2024-04-02 14:26:00,SystemResetWarning,0832.5,5.00,000.00,018.3,017.7,000.0,026.8,020.0,21.0,0000.0,0001.63,0001.19,0000.95
2024-04-02 14:27:00,SystemResetWarning,0832.5,5.00,000.00,018.3,017.7,000.0,026.8,020.0,20.2,0000.0,0001.78,0001.21,0000.96
2024-04-02 14:28:00,SystemResetWarning,0832.5,5.00,000.00,018.3,017.7,000.0,026.8,020.0,18.9,0000.0,0001.79,0001.22,0000.97
2024-04-02 14:29:00,SystemResetWarning,0832.5,5.00,000.00,018.3,017.7,000.0,026.8,020.0,19.5,0000.0,0001.94,0001.27,0000.96
2024-04-02 14:30:00,SystemResetWarning,0832.5,5.00,000.00,018.3,017.7,000.0,026.8,020.0,19.2,0000.0,0002.01,0001.29,0000.96
2024-04-02 14:31:00,SystemResetWarning,0832.5,5.00,000.00,018.3,017.7,000.0,026.8,020.0,18.5,0000.0,0002.00,0001.28,0000.96
2024-04-02 14:32:00,SystemResetWarning,0832.5,5.00,000.00,018.3,017.7,000.0,026.8,020.0,19.4,0000.0,0001.98,0001.27,0000.97
2024-04-02 14:33:00,SystemResetWarning,0832.5,5.00,000.00,018.3,017.7,000.0,026.8,020.0,18.5,0000.0,0002.02,0001.29,0000.98
2024-04-02 14:34:00,SystemResetWarning,0832.5,5.00,000.00,018.3,017.7,000.0,026.8,020.0,17.8,0000.0,0001.92,0001.24,0000.99
2024-04-02 14:35:00,SystemResetWarning,0832.5,5.00,000.00,018.3,017.7,000.0,026.8,020.0,18.4,0000.0,0001.93,0001.24,0000.99
2024-04-02 14:36:00,SystemResetWarning,0832.5,5.00,000.00,018.3,017.6,000.0,026.8,020.0,20.1,0000.0,0002.17,0001.32,0001.00
2024-04-02 14:37:00,SystemResetWarning,0832.5,5.00,000.00,018.3,017.6,000.0,026.8,020.0,21.3,0000.0,0002.41,0001.37,0001.01
2024-04-02 14:38:00,SystemResetWarning,0832.5,5.00,000.00,018.3,017.6,000.0,026.8,020.0,20.5,0000.0,0002.40,0001.38,0001.02
2024-04-02 14:39:00,SystemResetWarning,0832.5,5.00,000.00,018.3,017.6,000.0,026.8,020.0,21.4,0000.0,0002.42,0001.40,0001.03
2024-04-02 14:40:00,SystemResetWarning,0832.5,4.99,000.00,018.3,017.6,000.0,026.8,020.0,23.6,0000.0,0002.32,0001.38,0001.04
2024-04-02 14:41:00,SystemResetWarning,0832.6,5.02,000.00,018.3,017.6,000.0,026.8,020.0,22.1,0000.0,0002.33,0001.40,0001.06
2024-04-02 14:42:00,SystemResetWarning,0832.5,5.00,000.00,018.3,017.6,000.0,026.8,020.0,23.0,0000.0,0002.49,0001.47,0001.08
2024-04-02 14:43:00,SystemResetWarning,0832.6,5.00,000.00,018.3,017.6,000.0,026.8,020.0,24.5,0000.0,0002.60,0001.54,0001.10
2024-04-02 14:44:00,SystemResetWarning,0832.7,4.99,000.00,018.3,017.6,000.0,026.8,020.0,25.4,0000.0,0002.65,0001.56,0001.11
2024-04-02 14:45:00,SystemResetWarning,0832.7,4.99,000.00,018.3,017.6,000.0,026.8,020.0,25.0,0000.0,0002.85,0001.63,0001.14
2024-04-02 14:46:00,SystemResetWarning,0832.6,5.00,000.00,018.3,017.6,000.0,026.8,020.0,23.6,0000.0,0003.00,0001.67,0001.17
2024-04-02 14:47:00,SystemResetWarning,0832.7,5.00,000.00,018.3,017.6,000.0,026.8,020.0,22.3,0000.0,0002.90,0001.64,0001.18
2024-04-02 14:48:00,SystemResetWarning,0832.6,5.01,000.00,018.3,017.6,000.0,026.8,020.0,22.2,0000.0,0002.69,0001.60,0001.18
2024-04-02 14:49:00,SystemResetWarning,0832.7,5.00,000.00,018.3,017.6,000.0,026.8,020.0,22.8,0000.0,0002.67,0001.63,0001.20
2024-04-02 14:50:00,SystemResetWarning,0832.7,4.99,000.00,018.3,017.6,000.0,026.8,020.0,21.4,0000.0,0002.59,0001.61,0001.20
2024-04-02 14:51:00,SystemResetWarning,0832.7,4.99,000.00,018.3,017.6,000.0,026.8,020.0,20.2,0000.0,0002.63,0001.63,0001.20
2024-04-02 14:52:00,SystemResetWarning,0832.7,5.00,000.00,018.3,017.6,000.0,026.8,020.0,21.6,0000.0,0002.61,0001.63,0001.19
2024-04-02 14:53:00,SystemResetWarning,0832.7,5.01,000.00,018.3,017.6,000.0,026.8,020.0,22.4,0000.0,0002.43,0001.57,0001.19
2024-04-02 14:54:00,SystemResetWarning,0832.7,5.01,000.00,018.3,017.6,000.0,026.8,020.0,21.1,0000.0,0002.30,0001.51,0001.18
2024-04-02 14:55:00,SystemResetWarning,0832.7,5.00,000.00,018.3,017.6,000.0,026.8,020.0,21.6,0000.0,0002.25,0001.48,0001.18
2024-04-02 14:56:00,SystemResetWarning,0832.7,4.99,000.00,018.3,017.6,000.0,026.8,020.0,21.7,0000.0,0002.06,0001.44,0001.17
2024-04-02 14:57:00,SystemResetWarning,0832.7,4.99,000.00,018.3,017.6,000.0,026.8,020.0,23.3,0000.0,0001.89,0001.40,0001.15
2024-04-02 14:58:00,SystemResetWarning,0832.7,5.01,000.00,018.3,017.6,000.0,026.8,020.0,23.4,0000.0,0001.92,0001.41,0001.16
2024-04-02 14:59:00,SystemResetWarning,0832.7,5.00,000.00,018.3,017.6,000.0,026.8,020.0,23.0,0000.0,0001.98,0001.44,0001.17
